User: anonymous   Login
Location: Owatonna
(44.0840°N, 93.2260°W)
Time: 16:17:29
(UTC-06:00)
Language:

Cosmos 839 Rocket - Orbit

View from above orbital plane
View from above orbital plane
View from above satellite
View from above satellite

Ground track
Ground track

The orbit data is extracted from the following two-line orbital elements,

1  9013U 76067B   16344.63774288 -.00000080 +00000-0 -83902-4 0  9998
2  9013 065.8668 014.3584 0710118 147.9930 351.1099 12.35325944822996
Epoch (UTC): 09 December 2016 15:18:20
Eccentricity: 0.0710118
inclination: 65.8668°
perigee height: 965 km
apogee height: 2088 km
right ascension of ascending node: 14.3584°
argument of perigee: 147.9930°
revolutions per day: 12.35325944
mean anomaly at epoch: 351.1099°
orbit number at epoch: 82299

The dashed part of the orbit path shows where the satellite is in the earth's shadow,  

DLR